Time,TemperatureF,DewpointF,PressureIn,WindDirection,WindDirectionDegrees,WindSpeedMPH,WindSpeedGustMPH,Humidity,HourlyPrecipIn,Conditions,Clouds,dailyrainin,SolarRadiationWatts/m^2,SoftwareType,DateUTC
2013-10-03 00:13:00,60.0,44.0,-100.00,SE,127,4.0,11.0,55,0.00,,,0.00,0.000000,,2013-10-03 05:13:00,
2013-10-03 00:23:00,60.0,44.0,-100.00,SE,127,4.0,11.0,55,0.00,,,0.00,0.000000,,2013-10-03 05:23:00,
2013-10-03 00:33:00,60.0,44.0,-100.00,SE,127,4.0,11.0,55,0.00,,,0.00,0.000000,,2013-10-03 05:33:00,
2013-10-03 00:43:00,60.0,44.0,-100.00,SE,127,4.0,11.0,55,0.00,,,0.00,0.000000,,2013-10-03 05:43:00,
2013-10-03 01:12:00,61.0,46.0,-100.00,SSE,149,6.0,13.0,57,0.00,,,0.00,,,2013-10-03 06:12:00,
2013-10-03 01:22:00,61.0,46.0,-100.00,SSE,149,6.0,13.0,57,0.00,,,0.00,,,2013-10-03 06:22:00,
2013-10-03 01:32:00,61.0,46.0,-100.00,SSE,149,6.0,13.0,57,0.00,,,0.00,,,2013-10-03 06:32:00,
2013-10-03 01:42:00,61.0,46.0,-100.00,SSE,149,6.0,13.0,57,0.00,,,0.00,,,2013-10-03 06:42:00,
2013-10-03 02:11:00,60.0,46.0,-100.00,SSE,152,4.0,11.0,59,0.00,,,0.00,,,2013-10-03 07:11:00,
2013-10-03 02:22:00,60.0,46.0,-100.00,SSE,152,4.0,11.0,59,0.00,,,0.00,,,2013-10-03 07:22:00,
2013-10-03 02:31:00,60.0,46.0,-100.00,SSE,152,4.0,11.0,59,0.00,,,0.00,,,2013-10-03 07:31:00,
2013-10-03 02:42:00,60.0,46.0,-100.00,SSE,152,4.0,11.0,59,0.00,,,0.00,,,2013-10-03 07:42:00,
2013-10-03 03:12:00,60.0,44.0,-100.00,SSE,155,5.0,10.0,55,0.00,,,0.00,,,2013-10-03 08:12:00,
2013-10-03 03:22:00,60.0,44.0,-100.00,SSE,155,5.0,10.0,55,0.00,,,0.00,,,2013-10-03 08:22:00,
2013-10-03 03:32:00,60.0,44.0,-100.00,SSE,155,5.0,10.0,55,0.00,,,0.00,,,2013-10-03 08:32:00,
2013-10-03 03:42:00,60.0,44.0,-100.00,SSE,155,5.0,10.0,55,0.00,,,0.00,,,2013-10-03 08:42:00,
2013-10-03 04:12:00,61.0,48.0,-100.00,East,96,2.0,24.0,63,0.00,,,0.00,0.000000,,2013-10-03 09:12:00,
2013-10-03 04:22:00,61.0,48.0,-100.00,East,96,2.0,24.0,63,0.00,,,0.00,0.000000,,2013-10-03 09:22:00,
2013-10-03 04:33:00,61.0,48.0,-100.00,East,96,2.0,24.0,63,0.00,,,0.00,0.000000,,2013-10-03 09:33:00,
2013-10-03 04:43:00,61.0,48.0,-100.00,East,96,2.0,24.0,63,0.00,,,0.00,0.000000,,2013-10-03 09:43:00,
2013-10-03 05:13:00,57.0,52.0,-100.00,SE,145,2.0,7.0,82,0.00,,,0.00,,,2013-10-03 10:13:00,
2013-10-03 05:23:00,57.0,52.0,-100.00,SE,145,2.0,7.0,82,0.00,,,0.00,,,2013-10-03 10:23:00,
2013-10-03 05:33:00,57.0,52.0,-100.00,SE,145,2.0,7.0,82,0.00,,,0.00,,,2013-10-03 10:33:00,
2013-10-03 05:43:00,57.0,52.0,-100.00,SE,145,2.0,7.0,82,0.00,,,0.00,,,2013-10-03 10:43:00,
2013-10-03 06:12:00,56.0,54.0,-100.00,ESE,106,3.0,6.0,93,0.04,,,0.04,,,2013-10-03 11:12:00,
2013-10-03 06:23:00,56.0,54.0,-100.00,ESE,106,3.0,6.0,93,0.04,,,0.04,,,2013-10-03 11:23:00,
2013-10-03 06:33:00,56.0,54.0,-100.00,ESE,106,3.0,6.0,93,0.04,,,0.04,,,2013-10-03 11:33:00,
2013-10-03 06:42:00,56.0,54.0,-100.00,ESE,106,3.0,6.0,93,0.04,,,0.04,,,2013-10-03 11:42:00,
2013-10-03 07:12:00,55.0,54.0,-100.00,ENE,70,3.0,8.0,96,0.01,,,0.05,,,2013-10-03 12:12:00,
2013-10-03 07:22:00,55.0,54.0,-100.00,ENE,70,3.0,8.0,96,0.01,,,0.05,,,2013-10-03 12:22:00,
2013-10-03 07:32:00,55.0,54.0,-100.00,ENE,70,3.0,8.0,96,0.01,,,0.05,,,2013-10-03 12:32:00,
2013-10-03 07:42:00,55.0,54.0,-100.00,ENE,70,3.0,8.0,96,0.01,,,0.05,,,2013-10-03 12:42:00,
2013-10-03 08:11:00,54.0,53.0,-100.00,East,79,1.0,5.0,96,0.00,,,0.05,,,2013-10-03 13:11:00,
2013-10-03 08:22:00,54.0,53.0,-100.00,East,79,1.0,5.0,96,0.00,,,0.05,,,2013-10-03 13:22:00,
2013-10-03 08:32:00,54.0,53.0,-100.00,East,79,1.0,5.0,96,0.00,,,0.05,,,2013-10-03 13:32:00,
2013-10-03 08:42:00,54.0,53.0,-100.00,East,79,1.0,5.0,96,0.00,,,0.05,,,2013-10-03 13:42:00,
2013-10-03 09:11:00,58.0,55.0,-100.00,East,88,2.0,5.0,91,0.00,,,0.05,93.000000,,2013-10-03 14:11:00,
2013-10-03 09:22:00,58.0,55.0,-100.00,East,88,2.0,5.0,91,0.00,,,0.05,93.000000,,2013-10-03 14:22:00,
2013-10-03 09:32:00,58.0,55.0,-100.00,East,88,2.0,5.0,91,0.00,,,0.05,93.000000,,2013-10-03 14:32:00,
2013-10-03 09:42:00,58.0,55.0,-100.00,East,88,2.0,5.0,91,0.00,,,0.05,93.000000,,2013-10-03 14:42:00,
2013-10-03 10:11:00,62.0,57.0,-100.00,ESE,121,3.0,7.0,85,0.00,,,0.05,,,2013-10-03 15:11:00,
2013-10-03 10:22:00,62.0,57.0,-100.00,ESE,121,3.0,7.0,85,0.00,,,0.05,,,2013-10-03 15:22:00,
2013-10-03 10:33:00,62.0,57.0,-100.00,ESE,121,3.0,7.0,85,0.00,,,0.05,,,2013-10-03 15:33:00,
2013-10-03 10:43:00,62.0,57.0,-100.00,ESE,121,3.0,7.0,85,0.00,,,0.05,,,2013-10-03 15:43:00,
2013-10-03 11:12:00,64.0,58.0,-100.00,ENE,77,5.0,8.0,81,0.00,,,0.05,,,2013-10-03 16:12:00,
2013-10-03 11:23:00,64.0,58.0,-100.00,ENE,77,5.0,8.0,81,0.00,,,0.05,,,2013-10-03 16:23:00,
2013-10-03 11:33:00,64.0,58.0,-100.00,ENE,77,5.0,8.0,81,0.00,,,0.05,,,2013-10-03 16:33:00,
2013-10-03 11:42:00,64.0,58.0,-100.00,ENE,77,5.0,8.0,81,0.00,,,0.05,,,2013-10-03 16:42:00,
2013-10-03 12:12:00,67.0,59.0,-100.00,East,101,4.0,9.0,75,0.00,,,0.05,375.000000,,2013-10-03 17:12:00,
2013-10-03 12:22:00,67.0,59.0,-100.00,East,101,4.0,9.0,75,0.00,,,0.05,375.000000,,2013-10-03 17:22:00,
2013-10-03 12:33:00,67.0,59.0,-100.00,East,101,4.0,9.0,75,0.00,,,0.05,375.000000,,2013-10-03 17:33:00,
2013-10-03 12:42:00,67.0,59.0,-100.00,East,101,4.0,9.0,75,0.00,,,0.05,375.000000,,2013-10-03 17:42:00,
2013-10-03 13:12:00,71.0,60.0,-100.00,ENE,73,4.0,10.0,69,0.00,,,0.05,,,2013-10-03 18:12:00,
2013-10-03 13:22:00,71.0,60.0,-100.00,ENE,73,4.0,10.0,69,0.00,,,0.05,,,2013-10-03 18:22:00,
2013-10-03 13:32:00,71.0,60.0,-100.00,ENE,73,4.0,10.0,69,0.00,,,0.05,,,2013-10-03 18:32:00,
2013-10-03 13:42:00,71.0,60.0,-100.00,ENE,73,4.0,10.0,69,0.00,,,0.05,,,2013-10-03 18:42:00,
2013-10-03 14:11:00,69.0,60.0,-100.00,NE,49,4.0,9.0,72,0.00,,,0.05,315.000000,,2013-10-03 19:11:00,
2013-10-03 14:22:00,69.0,60.0,-100.00,NE,49,4.0,9.0,72,0.00,,,0.05,315.000000,,2013-10-03 19:22:00,
2013-10-03 14:32:00,69.0,60.0,-100.00,NE,49,4.0,9.0,72,0.00,,,0.05,315.000000,,2013-10-03 19:32:00,
2013-10-03 14:42:00,69.0,60.0,-100.00,NE,49,4.0,9.0,72,0.00,,,0.05,315.000000,,2013-10-03 19:42:00,
2013-10-03 15:12:00,68.0,61.0,-100.00,ENE,78,3.0,6.0,79,0.00,,,0.05,,,2013-10-03 20:12:00,
2013-10-03 15:21:00,68.0,61.0,-100.00,ENE,78,3.0,6.0,79,0.00,,,0.05,,,2013-10-03 20:21:00,
2013-10-03 15:32:00,68.0,61.0,-100.00,ENE,78,3.0,6.0,79,0.00,,,0.05,,,2013-10-03 20:32:00,
2013-10-03 15:42:00,68.0,61.0,-100.00,ENE,78,3.0,6.0,79,0.00,,,0.05,,,2013-10-03 20:42:00,
2013-10-03 16:12:00,67.0,61.0,-100.00,ENE,66,4.0,7.0,81,0.01,,,0.06,125.000000,,2013-10-03 21:12:00,
2013-10-03 16:21:00,67.0,61.0,-100.00,ENE,66,4.0,7.0,81,0.01,,,0.06,125.000000,,2013-10-03 21:21:00,
2013-10-03 16:34:00,67.0,61.0,-100.00,ENE,66,4.0,7.0,81,0.01,,,0.06,125.000000,,2013-10-03 21:34:00,
2013-10-03 16:43:00,67.0,61.0,-100.00,ENE,66,4.0,7.0,81,0.01,,,0.06,125.000000,,2013-10-03 21:43:00,
2013-10-03 17:13:00,64.0,62.0,-100.00,NNW,329,4.0,9.0,94,0.12,,,0.18,8.000000,,2013-10-03 22:13:00,
2013-10-03 17:23:00,64.0,62.0,-100.00,NNW,329,4.0,9.0,94,0.12,,,0.18,8.000000,,2013-10-03 22:23:00,
2013-10-03 17:33:00,64.0,62.0,-100.00,NNW,329,4.0,9.0,94,0.12,,,0.18,8.000000,,2013-10-03 22:33:00,
2013-10-03 17:43:00,64.0,62.0,-100.00,NNW,329,4.0,9.0,94,0.12,,,0.18,8.000000,,2013-10-03 22:43:00,
2013-10-03 18:12:00,63.0,62.0,-100.00,ENE,77,4.0,10.0,95,0.04,,,0.22,25.000000,,2013-10-03 23:12:00,
2013-10-03 18:22:00,63.0,62.0,-100.00,ENE,77,4.0,10.0,95,0.04,,,0.22,25.000000,,2013-10-03 23:22:00,
2013-10-03 18:34:00,63.0,62.0,-100.00,ENE,77,4.0,10.0,95,0.04,,,0.22,25.000000,,2013-10-03 23:34:00,
2013-10-03 18:43:00,63.0,62.0,-100.00,ENE,77,4.0,10.0,95,0.04,,,0.22,25.000000,,2013-10-03 23:43:00,
2013-10-03 19:12:00,63.0,62.0,-100.00,ENE,72,4.0,7.0,95,0.00,,,0.22,24.000000,,2013-10-04 00:12:00,
2013-10-03 19:22:00,63.0,62.0,-100.00,ENE,72,4.0,7.0,95,0.00,,,0.22,24.000000,,2013-10-04 00:22:00,
2013-10-03 19:32:00,63.0,62.0,-100.00,ENE,72,4.0,7.0,95,0.00,,,0.22,24.000000,,2013-10-04 00:32:00,
2013-10-03 19:42:00,63.0,62.0,-100.00,ENE,72,4.0,7.0,95,0.00,,,0.22,24.000000,,2013-10-04 00:42:00,
2013-10-03 20:12:00,62.0,61.0,-100.00,ENE,71,4.0,9.0,95,0.00,,,0.22,,,2013-10-04 01:12:00,
2013-10-03 20:22:00,62.0,61.0,-100.00,ENE,71,4.0,9.0,95,0.00,,,0.22,,,2013-10-04 01:22:00,
2013-10-03 20:32:00,62.0,61.0,-100.00,ENE,71,4.0,9.0,95,0.00,,,0.22,,,2013-10-04 01:32:00,
2013-10-03 20:42:00,62.0,61.0,-100.00,ENE,71,4.0,9.0,95,0.00,,,0.22,,,2013-10-04 01:42:00,
2013-10-03 21:12:00,61.0,60.0,-100.00,East,85,5.0,8.0,96,0.01,,,0.23,0.000000,,2013-10-04 02:12:00,
2013-10-03 21:22:00,61.0,60.0,-100.00,East,85,5.0,8.0,96,0.01,,,0.23,0.000000,,2013-10-04 02:22:00,
2013-10-03 21:32:00,61.0,60.0,-100.00,East,85,5.0,8.0,96,0.01,,,0.23,0.000000,,2013-10-04 02:32:00,
2013-10-03 21:43:00,61.0,60.0,-100.00,East,85,5.0,8.0,96,0.01,,,0.23,0.000000,,2013-10-04 02:43:00,
2013-10-03 22:12:00,60.0,58.0,-100.00,East,84,8.0,12.0,93,0.00,,,0.23,,,2013-10-04 03:12:00,
2013-10-03 22:22:00,60.0,58.0,-100.00,East,84,8.0,12.0,93,0.00,,,0.23,,,2013-10-04 03:22:00,
2013-10-03 22:34:00,60.0,58.0,-100.00,East,84,8.0,12.0,93,0.00,,,0.23,,,2013-10-04 03:34:00,
2013-10-03 22:44:00,60.0,58.0,-100.00,East,84,8.0,12.0,93,0.00,,,0.23,,,2013-10-04 03:44:00,
2013-10-03 22:48:00,59.0,57.0,-100.00,East,86,6.0,13.0,92,0.00,,,0.23,,,2013-10-04 03:48:00,